| time (UTC) | temp F | wind direction | speed MPH | gust MPH | rain 1hr in | rain 24hr in | rain mn in | humidity % | barometer mb |
| 20260510173650 | 58 | 214 | 1.0 | 4.0 | 0.00 | 0.00 | 0.00 | 79 | 1018.0 |
| 20260510173001 | 58 | 114 | 0.0 | 5.0 | 0.00 | 0.00 | 0.00 | 78 | 1018.4 |
| 20260510172751 | 58 | 194 | 2.0 | 6.0 | 0.00 | 0.00 | 0.00 | 79 | 1017.9 |
| 20260510171602 | 57 | 6 | 1.0 | 5.0 | 0.00 | 0.00 | 0.00 | 79 | 1018.3 |
| 20260510170950 | 58 | 173 | 1.0 | 6.0 | 0.00 | 0.00 | 0.00 | 81 | 1017.6 |
| 20260510170002 | 57 | 219 | 1.0 | 7.0 | 0.00 | 0.00 | 0.00 | 81 | 1017.8 |
| 20260510165151 | 57 | 203 | 1.0 | 7.0 | 0.00 | 0.00 | 0.00 | 81 | 1017.6 |
| 20260510164625 | 56 | 257 | 1.0 | 5.0 | 0.00 | 0.00 | 0.00 | 81 | 1018.1 |
| 20260510164251 | 56 | 177 | 1.0 | 5.0 | 0.00 | 0.00 | 0.00 | 81 | 1017.6 |
| 20260510163351 | 56 | 197 | 1.0 | 3.0 | 0.00 | 0.00 | 0.00 | 82 | 1017.6 |
| 20260510163001 | 56 | 186 | 0.0 | 5.0 | 0.00 | 0.00 | 0.00 | 81 | 1018.0 |
| 20260510162450 | 56 | 161 | 1.0 | 5.0 | 0.00 | 0.00 | 0.00 | 82 | 1017.5 |
| 20260510161601 | 55 | 29 | 0.0 | 6.0 | 0.00 | 0.00 | 0.00 | 82 | 1018.2 |
| 20260510161551 | 56 | 200 | 1.0 | 6.0 | 0.00 | 0.00 | 0.00 | 82 | 1017.7 |
| 20260510160132 | 55 | 215 | 1.0 | 6.0 | 0.00 | 0.00 | 0.00 | 84 | 1018.0 |
| 20260510155752 | 55 | 148 | 1.0 | 6.0 | 0.00 | 0.00 | 0.00 | 84 | 1017.4 |
| 20260510154851 | 55 | 0 | 0.0 | 3.0 | 0.00 | 0.00 | 0.00 | 85 | 1017.0 |
| 20260510154503 | 54 | 195 | 1.0 | 3.0 | 0.00 | 0.00 | 0.00 | 86 | 1017.5 |
| 20260510153101 | 54 | 162 | 0.0 | 5.0 | 0.00 | 0.00 | 0.00 | 87 | 1017.5 |
| 20260510153051 | 54 | 138 | 2.0 | 5.0 | 0.00 | 0.00 | 0.00 | 87 | 1017.0 |
| 20260510152151 | 54 | 128 | 1.0 | 7.0 | 0.00 | 0.00 | 0.00 | 88 | 1016.9 |
| 20260510151502 | 53 | 170 | 1.0 | 5.0 | 0.00 | 0.00 | 0.00 | 89 | 1017.2 |
| 20260510151251 | 53 | 0 | 0.0 | 3.0 | 0.00 | 0.00 | 0.00 | 89 | 1016.6 |
| 20260510150350 | 52 | 155 | 1.0 | 3.0 | 0.00 | 0.00 | 0.00 | 90 | 1016.6 |
| 20260510150111 | 52 | 167 | 0.0 | 3.0 | 0.00 | 0.00 | 0.00 | 91 | 1017.3 |
| 20260510145451 | 52 | 152 | 0.0 | 2.0 | 0.00 | 0.00 | 0.00 | 91 | 1016.9 |
| 20260510144551 | 52 | 140 | 1.0 | 1.0 | 0.00 | 0.00 | 0.00 | 91 | 1016.5 |
| 20260510144502 | 51 | 168 | 0.0 | 1.0 | 0.00 | 0.00 | 0.00 | 91 | 1017.2 |
| 20260510143650 | 51 | 130 | 1.0 | 4.0 | 0.00 | 0.00 | 0.00 | 91 | 1016.8 |
| 20260510143101 | 51 | 103 | 2.0 | 4.0 | 0.00 | 0.00 | 0.00 | 92 | 1017.3 |
| 20260510142750 | 51 | 132 | 1.0 | 4.0 | 0.00 | 0.00 | 0.00 | 92 | 1016.8 |
| 20260510141851 | 51 | 0 | 0.0 | 5.0 | 0.00 | 0.00 | 0.00 | 93 | 1016.8 |
| 20260510141502 | 50 | 169 | 1.0 | 5.0 | 0.00 | 0.00 | 0.00 | 93 | 1017.2 |
| 20260510140951 | 50 | 0 | 0.0 | 2.0 | 0.00 | 0.00 | 0.00 | 94 | 1016.7 |
| 20260510140101 | 49 | 117 | 0.0 | 0.0 | 0.00 | 0.00 | 0.00 | 94 | 1016.7 |
| 20260510140051 | 50 | 0 | 0.0 | 0.0 | 0.00 | 0.00 | 0.00 | 94 | 1016.2 |
| 20260510135151 | 49 | 0 | 0.0 | 0.0 | 0.00 | 0.00 | 0.00 | 94 | 1016.4 |
| 20260510134502 | 49 | 161 | 0.0 | 0.0 | 0.00 | 0.00 | 0.00 | 94 | 1017.0 |
| 20260510133351 | 49 | 137 | 0.0 | 3.0 | 0.00 | 0.00 | 0.00 | 94 | 1016.8 |
| 20260510133101 | 48 | 122 | 0.0 | 3.0 | 0.00 | 0.00 | 0.00 | 94 | 1017.4 |
| 20260510131502 | 48 | 153 | 0.0 | 3.0 | 0.00 | 0.00 | 0.00 | 95 | 1016.8 |
| 20260510130652 | 48 | 0 | 0.0 | 2.0 | 0.00 | 0.00 | 0.00 | 93 | 1016.3 |
| 20260510125751 | 48 | 0 | 0.0 | 0.0 | 0.00 | 0.00 | 0.00 | 93 | 1016.3 |
| 20260510124851 | 49 | 0 | 0.0 | 0.0 | 0.00 | 0.00 | 0.00 | 93 | 1016.3 |
| 20260510124504 | 48 | 139 | 0.0 | 0.0 | 0.00 | 0.00 | 0.00 | 93 | 1016.8 |
| 20260510123951 | 49 | 0 | 0.0 | 2.0 | 0.00 | 0.00 | 0.00 | 93 | 1016.5 |
| 20260510123102 | 49 | 139 | 0.0 | 2.0 | 0.00 | 0.00 | 0.00 | 93 | 1017.1 |
| 20260510123051 | 49 | 0 | 0.0 | 2.0 | 0.00 | 0.00 | 0.00 | 93 | 1016.6 |
| 20260510122151 | 49 | 0 | 0.0 | 1.0 | 0.00 | 0.00 | 0.00 | 92 | 1016.6 |
| 20260510121504 | 49 | 161 | 0.0 | 4.0 | 0.00 | 0.00 | 0.00 | 92 | 1017.3 |
| 20260510121251 | 50 | 0 | 0.0 | 4.0 | 0.00 | 0.00 | 0.00 | 92 | 1016.8 |
| 20260510120351 | 50 | 0 | 0.0 | 0.0 | 0.00 | 0.00 | 0.00 | 92 | 1016.9 |
| 20260510120103 | 50 | 162 | 0.0 | 0.0 | 0.00 | 0.00 | 0.00 | 91 | 1017.3 |
| 20260510115451 | 50 | 130 | 1.0 | 3.0 | 0.00 | 0.00 | 0.00 | 91 | 1016.8 |
| 20260510114551 | 51 | 125 | 2.0 | 5.0 | 0.00 | 0.00 | 0.00 | 92 | 1016.6 |
| 20260510114502 | 50 | 148 | 0.0 | 5.0 | 0.00 | 0.00 | 0.00 | 92 | 1017.1 |
| 20260510113651 | 51 | 132 | 1.0 | 3.0 | 0.00 | 0.00 | 0.00 | 92 | 1016.6 |
| 20260510113105 | 50 | 120 | 1.0 | 4.0 | 0.00 | 0.00 | 0.00 | 92 | 1017.1 |
| 20260510111502 | 50 | 175 | 0.0 | 3.0 | 0.00 | 0.00 | 0.00 | 93 | 1017.1 |
| 20260510110951 | 50 | 0 | 0.0 | 2.0 | 0.00 | 0.00 | 0.00 | 92 | 1016.5 |
| 20260510110111 | 50 | 105 | 0.0 | 3.0 | 0.00 | 0.00 | 0.00 | 92 | 1016.8 |
| 20260510110051 | 50 | 0 | 0.0 | 1.0 | 0.00 | 0.00 | 0.00 | 92 | 1016.3 |
| 20260510103351 | 51 | 145 | 1.0 | 4.0 | 0.00 | 0.00 | 0.00 | 91 | 1016.5 |
| 20260510103102 | 50 | 163 | 1.0 | 4.0 | 0.00 | 0.00 | 0.00 | 92 | 1016.9 |
| 20260510102451 | 51 | 0 | 0.0 | 3.0 | 0.00 | 0.00 | 0.00 | 91 | 1016.4 |
| 20260510101551 | 51 | 0 | 0.0 | 6.0 | 0.00 | 0.00 | 0.00 | 91 | 1015.9 |
| 20260510101503 | 51 | 190 | 0.0 | 6.0 | 0.00 | 0.00 | 0.00 | 91 | 1016.5 |
| 20260510100651 | 51 | 187 | 1.0 | 2.0 | 0.00 | 0.00 | 0.00 | 91 | 1015.7 |
| 20260510094511 | 51 | 220 | 1.0 | 8.0 | 0.00 | 0.00 | 0.00 | 90 | 1016.4 |
| 20260510093951 | 52 | 0 | 0.0 | 3.0 | 0.00 | 0.00 | 0.00 | 90 | 1015.9 |
| 20260510093121 | 51 | 221 | 0.0 | 1.0 | 0.00 | 0.00 | 0.00 | 89 | 1016.5 |
| 20260510092151 | 52 | 191 | 1.0 | 4.0 | 0.00 | 0.00 | 0.00 | 88 | 1015.9 |
| 20260510091505 | 52 | 181 | 0.0 | 5.0 | 0.00 | 0.00 | 0.00 | 88 | 1016.5 |
| 20260510091251 | 52 | 242 | 0.0 | 5.0 | 0.00 | 0.00 | 0.00 | 89 | 1016.0 |
| 20260510090351 | 52 | 187 | 1.0 | 4.0 | 0.00 | 0.00 | 0.00 | 88 | 1015.9 |
| 20260510084502 | 52 | 191 | 0.0 | 5.0 | 0.00 | 0.00 | 0.00 | 89 | 1016.4 |
| 20260510083651 | 52 | 158 | 0.0 | 3.0 | 0.00 | 0.00 | 0.00 | 89 | 1015.8 |
| 20260510083103 | 52 | 139 | 0.0 | 3.0 | 0.00 | 0.00 | 0.00 | 90 | 1016.3 |
| 20260510082751 | 52 | 0 | 0.0 | 3.0 | 0.00 | 0.00 | 0.00 | 89 | 1015.8 |
| 20260510081503 | 52 | 131 | 0.0 | 2.0 | 0.00 | 0.00 | 0.00 | 89 | 1016.2 |
| 20260510080952 | 53 | 0 | 0.0 | 1.0 | 0.00 | 0.00 | 0.00 | 88 | 1015.6 |
| 20260510080105 | 53 | 198 | 0.0 | 1.0 | 0.00 | 0.00 | 0.00 | 88 | 1016.2 |
| 20260510080051 | 53 | 0 | 0.0 | 3.0 | 0.00 | 0.00 | 0.00 | 88 | 1015.7 |
| 20260510075151 | 54 | 0 | 0.0 | 3.0 | 0.00 | 0.00 | 0.00 | 88 | 1015.6 |
| 20260510074502 | 53 | 89 | 0.0 | 4.0 | 0.00 | 0.00 | 0.00 | 88 | 1016.2 |
| 20260510074251 | 54 | 170 | 0.0 | 4.0 | 0.00 | 0.00 | 0.00 | 88 | 1015.5 |
| 20260510073351 | 54 | 352 | 0.0 | 4.0 | 0.00 | 0.00 | 0.00 | 88 | 1015.4 |
| 20260510073101 | 54 | 178 | 0.0 | 4.0 | 0.00 | 0.00 | 0.00 | 88 | 1015.9 |
| 20260510071551 | 55 | 0 | 0.0 | 3.0 | 0.00 | 0.00 | 0.00 | 88 | 1015.3 |
| 20260510071502 | 55 | 176 | 0.0 | 3.0 | 0.00 | 0.00 | 0.00 | 88 | 1015.8 |
| 20260510070651 | 55 | 0 | 0.0 | 2.0 | 0.00 | 0.00 | 0.00 | 87 | 1015.4 |
| 20260510065751 | 56 | 0 | 0.0 | 1.0 | 0.00 | 0.00 | 0.00 | 87 | 1015.2 |
| 20260510064851 | 56 | 0 | 0.0 | 2.0 | 0.00 | 0.00 | 0.00 | 86 | 1015.0 |
| 20260510064502 | 56 | 212 | 0.0 | 1.0 | 0.00 | 0.00 | 0.00 | 86 | 1015.6 |
| 20260510063102 | 56 | 238 | 0.0 | 2.0 | 0.00 | 0.00 | 0.00 | 86 | 1015.5 |
| 20260510063051 | 57 | 228 | 1.0 | 3.0 | 0.00 | 0.00 | 0.00 | 86 | 1015.0 |
| 20260510062151 | 57 | 266 | 0.0 | 4.0 | 0.00 | 0.00 | 0.00 | 87 | 1015.0 |
| 20260510061503 | 56 | 360 | 0.0 | 2.0 | 0.00 | 0.00 | 0.00 | 87 | 1015.6 |
| 20260510061251 | 56 | 0 | 0.0 | 3.0 | 0.00 | 0.00 | 0.00 | 87 | 1015.1 |
| 20260510060351 | 56 | 0 | 0.0 | 4.0 | 0.00 | 0.00 | 0.00 | 89 | 1015.1 |
| 20260510060104 | 55 | 321 | 0.0 | 4.0 | 0.00 | 0.00 | 0.00 | 89 | 1015.6 |
| 20260510055451 | 54 | 0 | 0.0 | 4.0 | 0.00 | 0.00 | 0.00 | 91 | 1015.3 |
| 20260510054551 | 52 | 0 | 0.0 | 1.0 | 0.00 | 0.00 | 0.00 | 89 | 1015.2 |
| 20260510054503 | 51 | 49 | 0.0 | 1.0 | 0.00 | 0.00 | 0.00 | 89 | 1015.7 |
| 20260510053106 | 52 | 356 | 0.0 | 0.0 | 0.00 | 0.00 | 0.00 | 87 | 1015.7 |
| 20260510052751 | 52 | 0 | 0.0 | 0.0 | 0.00 | 0.00 | 0.00 | 86 | 1015.0 |
| 20260510051851 | 53 | 0 | 0.0 | 1.0 | 0.00 | 0.00 | 0.00 | 85 | 1014.8 |
| 20260510051504 | 53 | 356 | 0.0 | 1.0 | 0.00 | 0.00 | 0.00 | 86 | 1015.5 |
| 20260510050951 | 53 | 0 | 0.0 | 0.0 | 0.00 | 0.00 | 0.00 | 85 | 1014.9 |
| 20260510050053 | 54 | 0 | 0.0 | 0.0 | 0.00 | 0.00 | 0.00 | 83 | 1014.9 |
| 20260510045151 | 54 | 0 | 0.0 | 0.0 | 0.00 | 0.00 | 0.00 | 82 | 1014.8 |
| 20260510044503 | 54 | 356 | 0.0 | 0.0 | 0.00 | 0.00 | 0.00 | 82 | 1015.3 |
| 20260510043106 | 55 | 356 | 0.0 | 0.0 | 0.00 | 0.00 | 0.00 | 80 | 1015.4 |
| 20260510042451 | 56 | 0 | 0.0 | 0.0 | 0.00 | 0.00 | 0.00 | 78 | 1014.8 |
| 20260510041551 | 57 | 0 | 0.0 | 0.0 | 0.00 | 0.00 | 0.00 | 77 | 1015.0 |
| 20260510041502 | 57 | 356 | 0.0 | 0.0 | 0.00 | 0.00 | 0.00 | 77 | 1015.3 |
| 20260510040651 | 58 | 0 | 0.0 | 0.0 | 0.00 | 0.00 | 0.00 | 76 | 1014.8 |
| 20260510035751 | 59 | 0 | 0.0 | 0.0 | 0.00 | 0.00 | 0.00 | 73 | 1014.7 |
| 20260510034851 | 60 | 0 | 0.0 | 0.0 | 0.00 | 0.00 | 0.00 | 73 | 1014.5 |
| 20260510034501 | 60 | 356 | 0.0 | 0.0 | 0.00 | 0.00 | 0.00 | 72 | 1015.3 |
| 20260510033952 | 61 | 0 | 0.0 | 0.0 | 0.00 | 0.00 | 0.00 | 70 | 1014.8 |
| 20260510033113 | 61 | 356 | 0.0 | 0.0 | 0.00 | 0.00 | 0.00 | 69 | 1015.3 |
| 20260510032151 | 63 | 0 | 0.0 | 0.0 | 0.00 | 0.00 | 0.00 | 67 | 1014.7 |
| 20260510031505 | 63 | 356 | 0.0 | 0.0 | 0.00 | 0.00 | 0.00 | 66 | 1015.2 |
| 20260510031251 | 64 | 0 | 0.0 | 0.0 | 0.00 | 0.00 | 0.00 | 66 | 1014.7 |
| 20260510030104 | 65 | 356 | 0.0 | 0.0 | 0.00 | 0.00 | 0.00 | 63 | 1015.2 |
| 20260510025451 | 66 | 0 | 0.0 | 0.0 | 0.00 | 0.00 | 0.00 | 62 | 1014.7 |
| 20260510024551 | 68 | 0 | 0.0 | 0.0 | 0.00 | 0.00 | 0.00 | 59 | 1014.7 |
| 20260510024502 | 67 | 356 | 0.0 | 0.0 | 0.00 | 0.00 | 0.00 | 60 | 1015.0 |
| 20260510023651 | 68 | 0 | 0.0 | 0.0 | 0.00 | 0.00 | 0.00 | 57 | 1014.6 |
| 20260510023101 | 68 | 310 | 0.0 | 2.0 | 0.00 | 0.00 | 0.00 | 57 | 1015.2 |
| 20260510022751 | 69 | 0 | 0.0 | 2.0 | 0.00 | 0.00 | 0.00 | 56 | 1014.6 |
| 20260510021851 | 70 | 0 | 0.0 | 1.0 | 0.00 | 0.00 | 0.00 | 56 | 1014.7 |
| 20260510020951 | 70 | 0 | 0.0 | 0.0 | 0.00 | 0.00 | 0.00 | 56 | 1014.8 |
| 20260510020101 | 70 | 312 | 0.0 | 3.0 | 0.00 | 0.00 | 0.00 | 57 | 1015.4 |
| 20260510020051 | 70 | 321 | 1.0 | 3.0 | 0.00 | 0.00 | 0.00 | 57 | 1014.9 |
| 20260510015151 | 70 | 311 | 1.0 | 3.0 | 0.00 | 0.00 | 0.00 | 55 | 1014.8 |
| 20260510014503 | 70 | 304 | 1.0 | 3.0 | 0.00 | 0.00 | 0.00 | 54 | 1015.6 |
| 20260510014252 | 71 | 323 | 1.0 | 4.0 | 0.00 | 0.00 | 0.00 | 56 | 1015.1 |
| 20260510013102 | 70 | 288 | 0.0 | 3.0 | 0.00 | 0.00 | 0.00 | 55 | 1015.7 |
| 20260510012451 | 71 | 0 | 0.0 | 0.0 | 0.00 | 0.00 | 0.00 | 56 | 1015.4 |
| 20260510011551 | 71 | 0 | 0.0 | 0.0 | 0.00 | 0.00 | 0.00 | 54 | 1015.4 |
| 20260510011502 | 71 | 254 | 0.0 | 0.0 | 0.00 | 0.00 | 0.00 | 53 | 1016.0 |
| 20260510005752 | 72 | 319 | 0.0 | 3.0 | 0.00 | 0.00 | 0.00 | 53 | 1015.5 |
| 20260510004851 | 72 | 316 | 1.0 | 5.0 | 0.00 | 0.00 | 0.00 | 55 | 1015.7 |
| 20260510004501 | 72 | 317 | 0.0 | 5.0 | 0.00 | 0.00 | 0.00 | 56 | 1016.1 |
| 20260510003952 | 73 | 327 | 1.0 | 5.0 | 0.00 | 0.00 | 0.00 | 54 | 1015.7 |
| 20260510003103 | 72 | 62 | 0.0 | 6.0 | 0.00 | 0.00 | 0.00 | 55 | 1016.2 |
| 20260510003051 | 73 | 346 | 1.0 | 6.0 | 0.00 | 0.00 | 0.00 | 55 | 1015.7 |
| 20260510002151 | 72 | 325 | 1.0 | 4.0 | 0.00 | 0.00 | 0.00 | 57 | 1015.8 |
| 20260510001502 | 72 | 338 | 0.0 | 5.0 | 0.00 | 0.00 | 0.00 | 58 | 1016.3 |
| 20260510001251 | 72 | 327 | 2.0 | 5.0 | 0.00 | 0.00 | 0.00 | 57 | 1015.7 |
| 20260510000104 | 72 | 271 | 2.0 | 7.0 | 0.00 | 0.00 | 0.00 | 56 | 1016.3 |
| 20260509235451 | 73 | 306 | 1.0 | 3.0 | 0.00 | 0.00 | 0.00 | 56 | 1015.9 |
| 20260509234501 | 73 | 259 | 1.0 | 5.0 | 0.00 | 0.00 | 0.00 | 55 | 1016.4 |
| 20260509233652 | 74 | 318 | 1.0 | 4.0 | 0.00 | 0.00 | 0.00 | 53 | 1016.2 |
| 20260509233101 | 73 | 321 | 1.0 | 4.0 | 0.00 | 0.00 | 0.00 | 55 | 1016.6 |
| 20260509232751 | 73 | 315 | 0.0 | 4.0 | 0.00 | 0.00 | 0.00 | 53 | 1016.3 |
| 20260509231851 | 74 | 4 | 1.0 | 4.0 | 0.00 | 0.00 | 0.00 | 53 | 1016.3 |
| 20260509231501 | 73 | 271 | 0.0 | 5.0 | 0.00 | 0.00 | 0.00 | 53 | 1016.9 |
| 20260509230951 | 74 | 324 | 0.0 | 5.0 | 0.00 | 0.00 | 0.00 | 53 | 1016.4 |
| 20260509225151 | 73 | 308 | 1.0 | 5.0 | 0.00 | 0.00 | 0.00 | 53 | 1016.6 |
| 20260509224501 | 73 | 105 | 0.0 | 2.0 | 0.00 | 0.00 | 0.00 | 53 | 1017.3 |
| 20260509224251 | 74 | 322 | 1.0 | 3.0 | 0.00 | 0.00 | 0.00 | 52 | 1016.6 |
| 20260509223352 | 73 | 332 | 1.0 | 4.0 | 0.00 | 0.00 | 0.00 | 53 | 1016.7 |
| 20260509223104 | 72 | 347 | 0.0 | 3.0 | 0.00 | 0.00 | 0.00 | 52 | 1017.3 |
| 20260509221552 | 72 | 298 | 1.0 | 5.0 | 0.00 | 0.00 | 0.00 | 52 | 1017.1 |
| 20260509221502 | 72 | 316 | 2.0 | 5.0 | 0.00 | 0.00 | 0.00 | 51 | 1017.7 |
| 20260509220651 | 72 | 240 | 2.0 | 4.0 | 0.00 | 0.00 | 0.00 | 53 | 1017.3 |
| 20260509215752 | 71 | 331 | 2.0 | 7.0 | 0.00 | 0.00 | 0.00 | 54 | 1017.5 |
| 20260509214852 | 71 | 323 | 1.0 | 7.0 | 0.00 | 0.00 | 0.00 | 54 | 1017.5 |
| 20260509214501 | 71 | 213 | 1.0 | 4.0 | 0.00 | 0.00 | 0.00 | 55 | 1018.1 |
| 20260509213952 | 71 | 267 | 1.0 | 4.0 | 0.00 | 0.00 | 0.00 | 58 | 1017.9 |
| 20260509213104 | 70 | 283 | 2.0 | 6.0 | 0.00 | 0.00 | 0.00 | 59 | 1018.6 |
| 20260509212152 | 70 | 237 | 2.0 | 5.0 | 0.00 | 0.00 | 0.00 | 60 | 1017.9 |
| 20260509211502 | 69 | 217 | 0.0 | 7.0 | 0.00 | 0.00 | 0.00 | 62 | 1018.5 |
| 20260509210352 | 69 | 302 | 1.0 | 5.0 | 0.00 | 0.00 | 0.00 | 62 | 1017.8 |
| 20260509210109 | 68 | 221 | 0.0 | 5.0 | 0.00 | 0.00 | 0.00 | 63 | 1018.5 |
| 20260509204552 | 69 | 286 | 2.0 | 5.0 | 0.00 | 0.00 | 0.00 | 63 | 1018.1 |
| 20260509204501 | 68 | 31 | 0.0 | 5.0 | 0.00 | 0.00 | 0.00 | 62 | 1018.6 |
| 20260509203652 | 69 | 275 | 1.0 | 6.0 | 0.00 | 0.00 | 0.00 | 62 | 1018.3 |
| 20260509203116 | 68 | 201 | 0.0 | 4.0 | 0.00 | 0.00 | 0.00 | 64 | 1018.6 |
| 20260509202752 | 69 | 263 | 2.0 | 4.0 | 0.00 | 0.00 | 0.00 | 63 | 1018.1 |
| 20260509201852 | 69 | 307 | 1.0 | 6.0 | 0.00 | 0.00 | 0.00 | 62 | 1018.0 |
| 20260509201502 | 69 | 295 | 1.0 | 3.0 | 0.00 | 0.00 | 0.00 | 65 | 1018.6 |
| 20260509200952 | 69 | 322 | 1.0 | 6.0 | 0.00 | 0.00 | 0.00 | 63 | 1018.3 |
| 20260509195152 | 68 | 283 | 2.0 | 6.0 | 0.00 | 0.00 | 0.00 | 64 | 1018.6 |
| 20260509194504 | 69 | 259 | 3.0 | 6.0 | 0.00 | 0.00 | 0.00 | 62 | 1019.1 |
| 20260509194252 | 70 | 176 | 1.0 | 4.0 | 0.00 | 0.00 | 0.00 | 60 | 1018.5 |
| 20260509193352 | 69 | 289 | 1.0 | 3.0 | 0.00 | 0.00 | 0.00 | 61 | 1018.5 |
| 20260509193111 | 69 | 335 | 0.0 | 3.0 | 0.00 | 0.00 | 0.00 | 60 | 1019.1 |
| 20260509192452 | 68 | 257 | 1.0 | 4.0 | 0.00 | 0.00 | 0.00 | 62 | 1018.7 |
| 20260509191552 | 68 | 288 | 2.0 | 5.0 | 0.00 | 0.00 | 0.00 | 63 | 1019.0 |
| 20260509191502 | 67 | 261 | 0.0 | 6.0 | 0.00 | 0.00 | 0.00 | 62 | 1019.5 |
| 20260509190652 | 67 | 296 | 2.0 | 5.0 | 0.00 | 0.00 | 0.00 | 65 | 1019.0 |
| 20260509190101 | 67 | 246 | 1.0 | 6.0 | 0.00 | 0.00 | 0.00 | 64 | 1019.6 |
| 20260509185752 | 68 | 332 | 1.0 | 5.0 | 0.00 | 0.00 | 0.00 | 63 | 1019.0 |
| 20260509184602 | 65 | 311 | 0.0 | 6.0 | 0.00 | 0.00 | 0.00 | 67 | 1019.7 |
| 20260509183952 | 65 | 314 | 1.0 | 6.0 | 0.00 | 0.00 | 0.00 | 68 | 1019.3 |
| 20260509183052 | 65 | 312 | 2.0 | 6.0 | 0.00 | 0.00 | 0.00 | 69 | 1019.2 |
| 20260509183003 | 64 | 1 | 1.0 | 6.0 | 0.00 | 0.00 | 0.00 | 69 | 1019.8 |
| 20260509182152 | 64 | 289 | 1.0 | 5.0 | 0.00 | 0.00 | 0.00 | 70 | 1019.3 |
| 20260509181604 | 64 | 232 | 0.0 | 4.0 | 0.00 | 0.00 | 0.00 | 73 | 1019.9 |
| 20260509181252 | 64 | 261 | 1.0 | 4.0 | 0.00 | 0.00 | 0.00 | 71 | 1019.2 |
| 20260509180352 | 63 | 270 | 1.0 | 4.0 | 0.00 | 0.00 | 0.00 | 72 | 1019.3 |
| 20260509180002 | 63 | 55 | 0.0 | 4.0 | 0.00 | 0.00 | 0.00 | 73 | 1019.7 |
| 20260509175452 | 62 | 283 | 1.0 | 4.0 | 0.00 | 0.00 | 0.00 | 75 | 1019.1 |
| 20260509174624 | 61 | 288 | 2.0 | 4.0 | 0.00 | 0.00 | 0.00 | 74 | 1019.7 |
| 20260509174552 | 62 | 298 | 2.0 | 5.0 | 0.00 | 0.00 | 0.00 | 74 | 1019.1 |